Regional Weather Roundup
Issued by NWS

Home | Current Version | Previous Version | Text Only | Print | Product List | Glossary On
Versions: 1 2 3 4 5 6 7 8 9 10 11 12 13 14 15 16 17 18 19 20 21 22 23 24 25 26 27 28 29 30 31 32 33 34 35 36 37 38 39 40 41 42 43 44 45 46 47 48 49 50
000
ASUS45 KABQ 210910
RWRNM
NEW MEXICO REGIONAL WEATHER ROUNDUP
NATIONAL WEATHER SERVICE ALBUQUERQUE NM
200 AM MST TUE FEB 21 2017

NOTE: "FAIR" MEANS FEW OR NO CLOUDS BELOW 12,000 FEET AGL WITH NO
       SIGNIFICANT WEATHER OR OBSTRUCTIONS TO VISION.

      THIS PRODUCT IS RELEASED AS TWO VERSIONS.  ONE VERSION NEAR
      THE TOP OF THE HOUR CONTAINING PRELIMINARY DATA FROM ALBUQUERQUE
      AND OTHER STATIONS.  A FINAL VERSION WITH ADDITIONAL DATA IS
      ISSUED ABOUT 10 MINUTES AFTER THE HOUR.

NMZ501-503-504-510>518-211000-
NORTHWEST PLATEAU/NORTHCENTRAL MOUNTAINS

CITY           SKY/WX    TMP DP  RH WIND       PRES   REMARKS
FARMINGTON     FAIR      36  30  79 E9        30.35S WCI  29
LOS ALAMOS     MOCLDY    37  26  63 S3        30.35F
SANTA FE       FAIR      40  27  59 N12       30.32R WCI  33
TAOS             N/A     28  16  59 CALM      30.35R
ANGEL FIRE     FAIR      35  25  67 W28G35    30.28F WCI  22

$$
NMZ402-403-502-505>509-211000-
WESTCENTRAL MOUNTAINS/SOUTHWEST MOUNTAINS

CITY           SKY/WX    TMP DP  RH WIND       PRES   REMARKS
GALLUP         FAIR      25  23  92 CALM      30.41S
GRANTS         FAIR      31  28  86 N3        30.40S
SILVER CITY    FAIR      40  36  86 NW7       30.34S WCI  35

$$
NMZ407-409-411-412-211000-
SOUTHERN DESERTS

CITY           SKY/WX    TMP DP  RH WIND       PRES   REMARKS
DEMING         FAIR      45  37  73 W8        30.31S
LAS CRUCES     FAIR      41  34  75 W6        30.30S
HOLLOMAN AFB   FAIR      41  26  55 NE9       30.30F
ALAMOGORDO     FAIR      48  27  43 NE7       30.28S
T OR C         FAIR      48  30  49 NW7       30.29S

$$
NMZ519>523-211000-
CENTRAL VALLEYS/CENTRAL HIGHLANDS

CITY           SKY/WX    TMP DP  RH WIND       PRES   REMARKS
ALBUQUERQUE    FAIR      46  31  55 N8        30.33S
DOUBLE EAGLE   FAIR      37  30  75 N6        30.34S WCI  33
MORIARTY ARPT  FAIR      47  32  56 NW29G35   30.28F
CLINES CORNERS FAIR      38  26  62 NW29G37   30.26F WCI  26
BELEN          FAIR      39  29  67 N6        30.33S WCI  35
SOCORRO        FAIR      42  30  62 E6        30.30S

$$
NMZ524>526-539-540-211000-
SOUTHCENTRAL MOUNTAINS

CITY           SKY/WX    TMP DP  RH WIND       PRES   REMARKS
RUIDOSO        FAIR      46  23  39 NW12G23   30.31S

$$
NMZ527>531-211000-
NORTHEAST HIGHLANDS/NORTHEAST PLAINS

CITY           SKY/WX    TMP DP  RH WIND       PRES   REMARKS
LAS VEGAS      FAIR      37  13  37 NE7       30.21F WCI  32
RATON          NOT AVBL
CLAYTON        FAIR      41  17  38 W13       30.11F

$$
NMZ532>537-211000-
EASTCENTRAL PLAINS

CITY           SKY/WX    TMP DP  RH WIND       PRES   REMARKS
TUCUMCARI      FAIR      36  20  52 W7        30.11F WCI  30
CANNON AFB     FAIR      41  26  56 W9        30.14S
CLOVIS AIRPORT FAIR      37  21  52 W5        30.13F WCI  34

$$
NMZ028-029-538-211000-
SOUTHEAST PLAINS

CITY           SKY/WX    TMP DP  RH WIND       PRES   REMARKS
ROSWELL        FAIR      42  24  49 S3          N/A
ARTESIA        FAIR      48  25  40 N10       30.17R
CARLSBAD       FAIR      55  25  31 NW3       30.15S
HOBBS          FAIR      41  23  48 W7        30.17R


$$



USA.gov is the U.S. government's official web portal to all federal, state and local government web resources and services.